Meath Environmental Platform

Observations for Trim Patrick St

Time AQI Temp °C Hum % Pres Pa CO μg/m³ H₂S μg/m³ NO μg/m³ NO₂ μg/m³ O₃ μg/m³ SO₂ μg/m³ PM1 μg/m³ PM2.5 μg/m³ PM10 μg/m³
Wednesday 5 August 2026
01:50 3 16 75 38,460 0.14 0 2.36 9.3 56.4 0 5.43 8.4 9.24
01:49 3 16.1 75 38,460 0.11 0 2.32 9.8 52.76 0 3.71 8.4 9.24
01:48 3 16.1 75 38,460 0.12 0 2.33 10.23 58.49 0 3.71 7.7 8.47
01:46 3 16.1 75 38,460 0.12 0.62 2.43 11.82 57.22 0 5.43 9.8 10.78
01:45 3 16.1 75 38,460 0.14 0.93 2.43 13.16 61.41 0 6.29 10.52 11.57
01:44 3 16.1 75 38,460 0.16 0.38 2.38 12.27 64.27 0 7.14 11.21 12.33
01:42 3 16.1 75 38,460 0.14 0 2.34 9.4 45 0 7.14 10.53 11.58
01:41 3 16 74 38,460 0.15 0.33 2.39 10.57 50.03 0 6.29 9.87 10.85
01:40 3 16 74 38,460 0.15 0.17 2.39 11.82 59.89 0 4.57 8.44 9.28
01:36 3 16.1 75 38,460 0.12 0 2.35 11.27 60.09 0 3.71 6.96 7.66
01:35 3 16 75 38,460 0.12 0 2.43 10.89 52.45 0 3.71 6.99 7.69
01:34 3 16.1 75 38,460 0.13 0 2.36 10.89 52.89 0 3.71 6.99 7.69
01:33 3 16.1 75 38,460 0.12 0 2.33 9.61 55.21 0 3.71 7.7 8.47
01:32 3 16.1 75 38,460 0.12 0 2.3 10.84 47.28 0 2.86 6.98 7.67
01:31 3 16 75 38,460 0.13 0 2.31 11.39 58.38 0 3.71 6.96 7.66
01:30 3 16 75 38,460 0.12 0 2.32 10.92 60.7 0 3.71 8.39 9.23
01:29 3 16 75 38,460 0.15 0 2.38 9.1 48.02 0 3.71 7.7 8.47
01:28 3 16.1 75 38,460 0.14 0 2.36 11.4 55.48 0 4.57 8.36 9.2
01:27 3 16.1 75 38,460 0.14 0 2.44 12.04 60.58 0 2.86 6.96 7.66
01:26 3 16.1 75 38,460 0.13 0 2.43 9.71 45.34 0 4.57 7.66 8.43